Date,TemperatureHighF,TemperatureAvgF,TemperatureLowF,DewpointHighF,DewpointAvgF,DewpointLowF,HumidityHigh,HumidityAvg,HumidityLow,PressureMaxIn,PressureMinIn,WindSpeedMaxMPH,WindSpeedAvgMPH,GustSpeedMaxMPH,PrecipitationSumIn
2013-6-1,99.9,81.9,57.6,62.8,53.7,48.6,73,42,23,29.89,29.71,4,1,7,0.00
2013-6-2,104.0,85.5,61.2,62.7,54.6,43.3,76,39,16,29.74,29.57,4,1,8,0.00
2013-6-3,96.7,82.9,63.9,60.2,55.1,49.4,61,41,25,29.75,29.65,5,2,8,0.00
2013-6-4,95.6,80.5,63.4,60.9,56.4,50.8,65,46,29,29.86,29.75,5,2,7,0.00
2013-6-5,96.1,81.3,63.2,63.8,59.4,54.7,76,50,31,29.94,29.79,5,1,8,0.00
2013-6-6,99.7,84.5,63.2,66.2,61.2,56.0,79,49,29,29.87,29.74,5,2,8,0.00
2013-6-7,104.0,91.1,67.7,67.3,64.2,58.7,74,44,27,29.81,29.66,4,2,8,0.00
2013-6-8,107.3,89.9,70.9,73.5,65.3,62.1,75,49,25,29.71,29.59,4,1,7,0.00
2013-6-9,102.2,89.2,72.0,63.4,58.0,50.0,52,36,24,29.77,29.65,5,2,8,0.00
2013-6-10,87.5,75.6,63.0,59.2,53.6,42.9,67,49,23,29.90,29.74,9,2,12,0.00
2013-6-11,94.9,78.1,61.7,60.2,56.5,51.7,71,50,27,29.95,29.79,4,1,8,0.00
2013-6-12,96.8,80.9,63.9,63.0,56.0,43.7,77,47,22,29.90,29.81,5,2,8,0.00
2013-6-13,90.2,81.9,63.9,46.4,42.0,34.8,51,26,16,30.03,29.90,5,2,9,0.00
2013-6-14,92.9,68.5,57.2,50.5,46.4,39.6,61,48,17,29.92,29.76,5,1,6,0.00
2013-6-15,95.9,78.2,58.5,50.8,45.2,36.0,64,36,13,29.87,29.79,5,2,5,0.00
2013-6-16,93.4,77.1,58.3,53.2,47.5,42.0,64,38,18,30.02,29.88,7,2,7,0.00
2013-6-17,92.5,76.7,58.7,54.8,48.6,44.2,62,40,22,30.03,29.88,6,2,6,0.00
2013-6-18,86.9,73.9,58.1,54.6,49.4,44.3,71,45,25,29.98,29.82,7,3,7,0.00
2013-6-19,82.1,69.6,55.6,51.0,46.8,43.6,66,46,28,30.01,29.89,7,2,7,0.00
2013-6-20,88.4,71.8,52.6,50.6,45.6,42.0,67,43,22,29.95,29.84,8,2,8,0.00
2013-6-21,90.4,75.2,55.3,52.0,47.1,41.0,66,40,19,29.93,29.82,6,2,6,0.00
2013-6-22,95.2,83.6,58.0,53.6,48.3,43.5,63,32,18,29.91,29.76,5,2,6,0.00
2013-6-23,87.8,79.1,60.1,55.0,51.3,43.0,67,39,26,29.82,29.74,8,3,11,0.00
2013-6-24,87.3,74.9,61.9,62.2,57.5,51.0,71,56,40,29.87,29.78,4,1,8,0.00
2013-6-25,94.1,80.0,64.3,63.5,60.2,56.2,77,53,33,29.97,29.85,5,2,9,0.00
2013-6-26,96.5,82.6,68.0,68.4,64.0,59.8,77,56,35,30.01,29.89,5,2,10,0.00
2013-6-27,100.1,85.1,68.4,68.4,65.0,60.1,76,54,32,30.04,29.92,5,2,7,0.00
2013-6-28,104.6,88.9,72.0,68.0,64.8,59.6,74,48,24,29.98,29.82,5,2,8,0.00
2013-6-29,106.6,89.1,73.6,67.2,64.0,59.9,68,47,23,29.88,29.72,5,2,7,0.00
2013-6-30,107.5,96.6,74.5,68.3,65.2,62.0,68,38,25,29.80,29.67,5,2,8,0.00